Regional Weather Roundup
Issued by NWS

Home | Current Version | Previous Version | Graphics & Text | Print | Product List | Glossary On
Versions: 1 2 3 4 5 6 7 8 9 10 11 12 13 14 15 16 17 18 19 20 21 22 23 24 25 26 27 28 29 30 31 32 33 34 35 36 37 38 39 40 41 42 43 44 45 46 47 48 49 50
000
ASUS43 KLMK 250402
RWRKY
KENTUCKY REGIONAL WEATHER ROUNDUP
NATIONAL WEATHER SERVICE LOUISVILLE KY
1200 AM EDT WED MAY 25 2016

NOTE "FAIR" INDICATES FEW OR NO CLOUDS BELOW 12,000 FEET
WITH NO SIGNIFICANT WEATHER AND/OR OBSTRUCTIONS TO VISIBILITY.

KYZ001>023-026-027-061>063-070>075-250500-
WESTERN AND SOUTH CENTRAL KENTUCKY

CITY           SKY/WX    TMP DP  RH WIND       PRES   REMARKS
PADUCAH        MOCLDY    71  60  68 CALM      30.03S
HENDERSON      PTCLDY    68  59  73 CALM      30.04S
OWENSBORO      CLOUDY    71  61  70 S7        30.06R
HOPKINSVILLE   NOT AVBL
BOWLING GREEN  CLEAR     67  59  75 CALM      30.08S
GLASGOW        NOT AVBL
$$

KYZ024-025-028>034-038-045-046-053-250500-
NORTH CENTRAL KENTUCKY

CITY           SKY/WX    TMP DP  RH WIND       PRES   REMARKS
LOUISVILLE/SDF PTCLDY    74  56  53 E6        30.07F
LOUISVILLE/LOU CLEAR     72  57  59 CALM      30.09S
FORT KNOX      NOT AVBL
$$

KYZ035>037-039>044-047>052-055>060-089>105-250500-
NORTHEAST KENTUCKY

CITY           SKY/WX    TMP DP  RH WIND       PRES   REMARKS
LEXINGTON      CLEAR     67  49  52 SE6       30.12S
COVINGTON      CLEAR     66  50  56 S6        30.10S
FRANKFORT      CLEAR     64  54  69 CALM      30.10S
$$

KYZ054-064>069-076>088-106>120-250500-
SOUTHEAST KENTUCKY

CITY           SKY/WX    TMP DP  RH WIND       PRES   REMARKS
JACKSON        CLEAR     69  45  41 CALM      30.16S
LONDON         CLEAR     59  53  80 CALM      30.16S
SOMERSET       NOT AVBL
MIDDLESBORO    CLEAR     56  51  82 CALM      30.19S
MONTICELLO     CLEAR     61  58  90 CALM      30.15S
$$





USA.gov is the U.S. government's official web portal to all federal, state and local government web resources and services.